Location: Nairn
(57.5833°N, 3.8667°W)
Time: 09:52:23
(UTC+00:00)

N. Korean satellite - Pass Details

Date: 02 November 2020
Orbit: 452 x 504 km, 97.2° (Epoch: 25 November)

Event Time Altitude Azimuth Distance (km) Brightness Sun altitude
Rises 05:50:51 0° 16° (NNE) 2,485 10.3 -13.6°
Reaches altitude 10° 05:52:56 10° 21° (NNE) 1,605 9.4 -13.4°
Maximum altitude 05:56:19 59° 102° (ESE) 532 7.1 -12.9°
Drops below altitude 10° 05:59:42 10° 183° (S) 1,594 9.2 -12.5°
Sets 06:01:45 0° 187° (S) 2,466 10.2 -12.2°
